Location: Asheville, NC
(35.6000°N, 82.5500°W)
Time: 18:48:01
(UTC-05:00)

Envisat - Pass Details

Date: 17 February 2018
Orbit: 764 x 766 km, 98.2° (Epoch: 17 February)

Event Time Altitude Azimuth Distance (km) Brightness Sun altitude
Exits shadow 19:40:27 - 151° (SSE) 2,600 5.5 -18.2°
Reaches altitude 10° 19:41:15 10° 149° (SSE) 2,291 5.2 -18.3°
Maximum altitude 19:46:08 52° 73° (ENE) 942 3.1 -19.3°
Drops below altitude 10° 19:51:03 10° 358° (N) 2,304 5.5 -20.3°
Sets 19:53:24 0° 354° (N) 3,233 6.3 -20.8°
